Regional Weather Roundup
Issued by NWS

Home | Current Version | Previous Version | Graphics & Text | Print | Product List | Glossary On
Versions: 1 2 3 4 5 6 7 8 9 10 11 12 13 14 15 16 17 18 19 20 21 22 23 24 25 26 27 28 29 30 31 32 33 34 35 36 37 38 39 40 41 42 43 44 45 46 47 48 49 50
000
ASUS43 KLSX 181907
RWRMO

WEATHER SUMMARY FOR MISSOURI
NATIONAL WEATHER SERVICE SPRINGFIELD MO
200 PM CDT SAT APR 18 2015

NOTE: "FAIR" INDICATES FEW OR NO CLOUDS BELOW 12,000 FEET WITH NO
       SIGNIFICANT WEATHER AND/OR OBSTRUCTIONS TO VISIBILITY.
       CURRENT SKY AND/OR WEATHER CONDITIONS ARE NOT AVAILABLE FOR
       CHILLICOTHE AND FARMINGTON.

MOZ001>031-035>038-043-044-053-054-182000-
...NORTHERN AND WESTERN MISSOURI...

CITY           SKY/WX    TMP DP  RH WIND       PRES   REMARKS
KANSAS CTY INT LGT RAIN  62  60  93 S9        29.92S
KANSAS C DTWN  LGT RAIN  63  59  87 S7        29.93R
LEE`S SUMMIT   LGT RAIN  61  59  93 S7        29.94S
ST JOSEPH      CLOUDY    64  59  83 CALM      29.89S
CHILLICOTHE      N/A     70  59  68 VRB6      29.91F
KIRKSVILLE     CLOUDY    73  62  68 SE13      29.91F

$$
MOZ066>068-077>081-088>096-101>105-182000-
...SOUTHWEST MISSOURI...

CITY           SKY/WX    TMP DP  RH WIND       PRES   REMARKS
SPRINGFIELD    CLOUDY    65  58  78 NW6       29.95F
JOPLIN         LGT RAIN  63  60  90 E5        29.94F

$$
MOZ032>034-039>042-045>050-055>058-069>072-182000-
...CENTRAL MISSOURI...

CITY           SKY/WX    TMP DP  RH WIND       PRES   REMARKS
COLUMBIA       PTSUNNY   75  56  51 S14G24    29.92S
JEFFERSON CITY PTSUNNY   74  57  55 S15       29.92S
ROLLA          CLOUDY    75  57  53 S10       29.92F
SEDALIA        RAIN      62  59  90 W6        29.97R FOG
WHITEMAN AFB   LGT RAIN  61  59  93 CALM      29.95R
WARRENSBURG    RAIN      61  59  94 SW5       29.94S
OSAGE BEACH    CLOUDY    64  55  72 W7G31     29.94S THUNDER

$$
MOZ051-052-059>065-182000-
...EAST CENTRAL MISSOURI...

CITY           SKY/WX    TMP DP  RH WIND       PRES   REMARKS
ST LOUIS INTL  CLOUDY    75  60  59 SE12      29.96F
SPIRIT OF STL  CLOUDY    73  61  65 SE9       29.94F
ST CHARLES     PTSUNNY   75  59  57 SE14      29.94F

$$
MOZ072>076-082>087-097>100-106>115-182000-
...SOUTH CENTRAL AND SOUTHEAST MISSOURI...

CITY           SKY/WX    TMP DP  RH WIND       PRES   REMARKS
CAPE GIRARDEAU CLOUDY    76  60  57 VRB7      29.93F
FARMINGTON     CLOUDY    75  57  53 SE12      29.97F
POPLAR BLUFF   PTSUNNY   74  61  63 E9        29.92F
WEST PLAINS    PTSUNNY   70  57  63 SE8G17    29.97F

$$


USA.gov is the U.S. government's official web portal to all federal, state and local government web resources and services.